| time (UTC) | temp F | wind direction | speed MPH | gust MPH | rain 1hr in | rain 24hr in | rain mn in | humidity % | barometer mb |
| 20260509135512 | 53 | 321 | 1.0 | 10.0 | 0.00 | 0.08 | 0.00 | 46 | 1023.9 |
| 20260509135011 | 52 | 0 | 3.0 | 10.0 | 0.00 | 0.08 | 0.00 | 47 | 1024.0 |
| 20260509134530 | 52 | 0 | 1.0 | 10.0 | 0.00 | 0.08 | 0.00 | 48 | 1024.0 |
| 20260509134012 | 52 | 17 | 1.0 | 10.0 | 0.00 | 0.08 | 0.00 | 50 | 1024.1 |
| 20260509133514 | 51 | 0 | 1.0 | 10.0 | 0.00 | 0.08 | 0.00 | 54 | 1024.1 |
| 20260509133028 | 51 | 0 | 0.0 | 10.0 | 0.00 | 0.08 | 0.00 | 54 | 1024.1 |
| 20260509132510 | 51 | 0 | 1.0 | 14.0 | 0.00 | 0.08 | 0.00 | 53 | 1024.0 |
| 20260509132011 | 52 | 334 | 2.0 | 14.0 | 0.00 | 0.08 | 0.00 | 52 | 1024.0 |
| 20260509131528 | 52 | 0 | 0.0 | 10.0 | 0.00 | 0.08 | 0.00 | 51 | 1023.9 |
| 20260509131014 | 52 | 0 | 0.0 | 9.0 | 0.00 | 0.08 | 0.00 | 51 | 1024.0 |
| 20260509130516 | 51 | 0 | 0.0 | 9.0 | 0.00 | 0.08 | 0.00 | 52 | 1024.1 |
| 20260509130029 | 52 | 352 | 1.0 | 9.0 | 0.00 | 0.08 | 0.00 | 52 | 1024.1 |
| 20260509125514 | 52 | 0 | 0.0 | 9.0 | 0.00 | 0.08 | 0.00 | 55 | 1024.1 |
| 20260509125007 | 51 | 9 | 2.0 | 9.0 | 0.00 | 0.08 | 0.00 | 55 | 1024.2 |
| 20260509124537 | 50 | 0 | 0.0 | 4.0 | 0.00 | 0.08 | 0.00 | 58 | 1024.2 |
| 20260509124008 | 49 | 0 | 0.0 | 9.0 | 0.00 | 0.08 | 0.00 | 56 | 1024.2 |
| 20260509123509 | 49 | 0 | 0.0 | 10.0 | 0.00 | 0.08 | 0.00 | 58 | 1024.1 |
| 20260509123027 | 49 | 17 | 2.0 | 10.0 | 0.00 | 0.08 | 0.00 | 57 | 1024.1 |
| 20260509122514 | 48 | 22 | 2.0 | 10.0 | 0.00 | 0.08 | 0.00 | 57 | 1024.2 |
| 20260509122014 | 48 | 0 | 0.0 | 8.0 | 0.00 | 0.08 | 0.00 | 59 | 1024.1 |
| 20260509121538 | 48 | 76 | 0.0 | 9.0 | 0.00 | 0.08 | 0.00 | 59 | 1024.2 |
| 20260509121007 | 48 | 0 | 0.0 | 9.0 | 0.00 | 0.08 | 0.00 | 63 | 1024.1 |
| 20260509120511 | 48 | 0 | 2.0 | 9.0 | 0.00 | 0.08 | 0.00 | 61 | 1024.2 |
| 20260509120027 | 49 | 0 | 0.0 | 9.0 | 0.00 | 0.08 | 0.00 | 62 | 1024.1 |
| 20260509115511 | 49 | 0 | 3.0 | 9.0 | 0.00 | 0.08 | 0.00 | 63 | 1024.1 |
| 20260509115009 | 49 | 61 | 0.0 | 7.0 | 0.00 | 0.08 | 0.00 | 65 | 1024.1 |
| 20260509114547 | 49 | 71 | 1.0 | 8.0 | 0.00 | 0.08 | 0.00 | 63 | 1024.2 |
| 20260509114010 | 49 | 0 | 3.0 | 9.0 | 0.00 | 0.08 | 0.00 | 63 | 1024.2 |
| 20260509113509 | 49 | 103 | 1.0 | 9.0 | 0.00 | 0.08 | 0.00 | 62 | 1024.3 |
| 20260509113026 | 49 | 0 | 1.0 | 10.0 | 0.00 | 0.08 | 0.00 | 58 | 1024.4 |
| 20260509112508 | 49 | 0 | 0.0 | 10.0 | 0.00 | 0.08 | 0.00 | 59 | 1024.4 |
| 20260509112009 | 49 | 306 | 1.0 | 9.0 | 0.00 | 0.08 | 0.00 | 60 | 1024.4 |
| 20260509111527 | 49 | 355 | 1.0 | 8.0 | 0.00 | 0.08 | 0.00 | 59 | 1024.2 |
| 20260509111010 | 49 | 0 | 0.0 | 4.0 | 0.00 | 0.08 | 0.00 | 58 | 1024.3 |
| 20260509110514 | 49 | 0 | 0.0 | 10.0 | 0.00 | 0.08 | 0.00 | 59 | 1024.3 |
| 20260509110028 | 49 | 0 | 0.0 | 10.0 | 0.00 | 0.08 | 0.00 | 59 | 1024.4 |
| 20260509105507 | 49 | 352 | 1.0 | 10.0 | 0.00 | 0.08 | 0.00 | 58 | 1024.4 |
| 20260509105009 | 49 | 0 | 0.0 | 10.0 | 0.00 | 0.08 | 0.00 | 58 | 1024.3 |
| 20260509104527 | 49 | 315 | 1.0 | 10.0 | 0.00 | 0.08 | 0.00 | 60 | 1024.3 |
| 20260509104010 | 49 | 0 | 0.0 | 12.0 | 0.00 | 0.08 | 0.00 | 59 | 1024.1 |
| 20260509103509 | 49 | 360 | 1.0 | 12.0 | 0.00 | 0.08 | 0.00 | 60 | 1024.1 |
| 20260509103026 | 49 | 351 | 1.0 | 12.0 | 0.00 | 0.08 | 0.00 | 58 | 1024.1 |
| 20260509102509 | 49 | 0 | 0.0 | 8.0 | 0.00 | 0.08 | 0.00 | 56 | 1023.8 |
| 20260509102008 | 49 | 351 | 1.0 | 8.0 | 0.00 | 0.08 | 0.00 | 56 | 1024.0 |
| 20260509101528 | 49 | 0 | 0.0 | 6.0 | 0.00 | 0.08 | 0.00 | 58 | 1024.0 |
| 20260509101008 | 48 | 0 | 0.0 | 4.0 | 0.00 | 0.08 | 0.00 | 59 | 1024.0 |
| 20260509100510 | 48 | 0 | 0.0 | 5.0 | 0.00 | 0.08 | 0.00 | 59 | 1024.0 |
| 20260509100028 | 48 | 321 | 0.0 | 8.0 | 0.00 | 0.08 | 0.00 | 57 | 1024.1 |
| 20260509095511 | 48 | 0 | 1.0 | 8.0 | 0.00 | 0.08 | 0.00 | 58 | 1024.1 |
| 20260509095007 | 49 | 9 | 0.0 | 6.0 | 0.00 | 0.08 | 0.00 | 62 | 1024.0 |
| 20260509094531 | 48 | 0 | 0.0 | 6.0 | 0.00 | 0.08 | 0.00 | 63 | 1024.0 |
| 20260509094008 | 48 | 0 | 0.0 | 8.0 | 0.00 | 0.08 | 0.00 | 63 | 1024.0 |
| 20260509093510 | 48 | 0 | 0.0 | 8.0 | 0.00 | 0.08 | 0.00 | 61 | 1023.9 |
| 20260509093028 | 48 | 345 | 1.0 | 8.0 | 0.00 | 0.08 | 0.00 | 59 | 1023.9 |
| 20260509092514 | 48 | 0 | 0.0 | 9.0 | 0.00 | 0.08 | 0.00 | 58 | 1023.8 |
| 20260509092012 | 49 | 0 | 1.0 | 9.0 | 0.00 | 0.08 | 0.00 | 60 | 1023.8 |
| 20260509091527 | 49 | 303 | 0.0 | 9.0 | 0.00 | 0.08 | 0.00 | 62 | 1023.8 |
| 20260509091007 | 48 | 0 | 0.0 | 6.0 | 0.00 | 0.08 | 0.00 | 61 | 1023.8 |
| 20260509090507 | 47 | 0 | 0.0 | 5.0 | 0.00 | 0.08 | 0.00 | 61 | 1023.9 |
| 20260509090050 | 47 | 0 | 0.0 | 4.0 | 0.00 | 0.08 | 0.00 | 65 | 1023.9 |
| 20260509085510 | 47 | 0 | 0.0 | 4.0 | 0.00 | 0.08 | 0.00 | 65 | 1023.8 |
| 20260509085010 | 47 | 0 | 0.0 | 4.0 | 0.00 | 0.08 | 0.00 | 65 | 1023.9 |
| 20260509084530 | 48 | 0 | 0.0 | 2.0 | 0.00 | 0.08 | 0.00 | 63 | 1023.8 |
| 20260509084010 | 48 | 0 | 0.0 | 6.0 | 0.00 | 0.08 | 0.00 | 62 | 1023.8 |
| 20260509083510 | 48 | 0 | 0.0 | 6.0 | 0.00 | 0.08 | 0.00 | 62 | 1023.8 |
| 20260509083043 | 47 | 0 | 0.0 | 6.0 | 0.00 | 0.08 | 0.00 | 64 | 1023.8 |
| 20260509082513 | 47 | 0 | 0.0 | 8.0 | 0.00 | 0.08 | 0.00 | 65 | 1023.8 |
| 20260509082016 | 46 | 0 | 0.0 | 8.0 | 0.00 | 0.08 | 0.00 | 66 | 1023.9 |
| 20260509081531 | 46 | 360 | 1.0 | 8.0 | 0.00 | 0.08 | 0.00 | 67 | 1023.9 |
| 20260509081014 | 45 | 0 | 0.0 | 8.0 | 0.00 | 0.08 | 0.00 | 67 | 1024.0 |
| 20260509080508 | 45 | 0 | 0.0 | 6.0 | 0.00 | 0.08 | 0.00 | 68 | 1024.0 |
| 20260509080033 | 45 | 0 | 0.0 | 3.0 | 0.00 | 0.08 | 0.00 | 70 | 1024.0 |
| 20260509075509 | 45 | 322 | 0.0 | 3.0 | 0.00 | 0.08 | 0.00 | 70 | 1023.9 |
| 20260509075011 | 45 | 0 | 0.0 | 3.0 | 0.00 | 0.08 | 0.00 | 70 | 1023.9 |
| 20260509074534 | 44 | 0 | 0.0 | 2.0 | 0.00 | 0.08 | 0.00 | 71 | 1024.0 |
| 20260509074012 | 44 | 0 | 0.0 | 2.0 | 0.00 | 0.08 | 0.00 | 71 | 1024.1 |
| 20260509073509 | 44 | 0 | 0.0 | 1.0 | 0.00 | 0.08 | 0.00 | 71 | 1024.3 |
| 20260509073027 | 44 | 0 | 0.0 | 5.0 | 0.00 | 0.08 | 0.00 | 71 | 1024.4 |
| 20260509072514 | 44 | 0 | 0.0 | 5.0 | 0.00 | 0.08 | 0.00 | 72 | 1024.3 |
| 20260509072009 | 44 | 0 | 0.0 | 3.0 | 0.00 | 0.08 | 0.00 | 74 | 1024.1 |
| 20260509071528 | 44 | 0 | 0.0 | 3.0 | 0.00 | 0.08 | 0.00 | 73 | 1024.1 |
| 20260509071009 | 44 | 351 | 0.0 | 3.0 | 0.00 | 0.08 | 0.00 | 73 | 1024.0 |
| 20260509070507 | 44 | 0 | 0.0 | 0.0 | 0.00 | 0.08 | 0.00 | 75 | 1024.0 |
| 20260509070033 | 44 | 0 | 0.0 | 1.0 | 0.00 | 0.08 | 0.00 | 76 | 1024.0 |
| 20260509065511 | 44 | 0 | 0.0 | 1.0 | 0.00 | 0.08 | 0.00 | 74 | 1023.9 |
| 20260509065009 | 44 | 0 | 0.0 | 5.0 | 0.00 | 0.08 | 0.00 | 76 | 1023.9 |
| 20260509064530 | 43 | 0 | 0.0 | 6.0 | 0.00 | 0.08 | 0.00 | 75 | 1023.9 |
| 20260509064012 | 43 | 350 | 0.0 | 6.0 | 0.00 | 0.08 | 0.00 | 76 | 1023.8 |
| 20260509063507 | 42 | 0 | 0.0 | 2.0 | 0.00 | 0.08 | 0.00 | 78 | 1023.8 |
| 20260509063029 | 42 | 0 | 0.0 | 2.0 | 0.00 | 0.08 | 0.00 | 78 | 1023.8 |
| 20260509062514 | 41 | 0 | 0.0 | 3.0 | 0.00 | 0.08 | 0.00 | 78 | 1023.8 |
| 20260509062011 | 41 | 0 | 0.0 | 4.0 | 0.00 | 0.08 | 0.00 | 78 | 1023.7 |
| 20260509061528 | 41 | 0 | 1.0 | 4.0 | 0.00 | 0.08 | 0.00 | 78 | 1023.6 |
| 20260509061014 | 41 | 0 | 0.0 | 2.0 | 0.00 | 0.08 | 0.00 | 79 | 1023.4 |
| 20260509060510 | 41 | 0 | 0.0 | 3.0 | 0.00 | 0.08 | 0.00 | 79 | 1023.6 |
| 20260509060028 | 41 | 0 | 0.0 | 3.0 | 0.00 | 0.08 | 0.00 | 80 | 1023.5 |
| 20260509055508 | 41 | 0 | 0.0 | 3.0 | 0.00 | 0.08 | 0.00 | 81 | 1023.6 |
| 20260509055009 | 41 | 0 | 0.0 | 0.0 | 0.00 | 0.08 | 0.00 | 81 | 1023.5 |
| 20260509054527 | 40 | 0 | 0.0 | 0.0 | 0.00 | 0.08 | 0.00 | 82 | 1023.5 |
| 20260509054012 | 40 | 0 | 0.0 | 0.0 | 0.00 | 0.08 | 0.00 | 82 | 1023.4 |
| 20260509053510 | 40 | 0 | 0.0 | 0.0 | 0.00 | 0.08 | 0.00 | 82 | 1023.4 |
| 20260509053040 | 40 | 0 | 0.0 | 0.0 | 0.00 | 0.08 | 0.00 | 82 | 1023.3 |
| 20260509052513 | 40 | 0 | 0.0 | 0.0 | 0.00 | 0.08 | 0.00 | 82 | 1023.2 |
| 20260509052010 | 40 | 0 | 0.0 | 0.0 | 0.00 | 0.08 | 0.00 | 82 | 1023.2 |
| 20260509051531 | 40 | 0 | 0.0 | 0.0 | 0.00 | 0.08 | 0.00 | 82 | 1023.1 |
| 20260509051011 | 40 | 0 | 0.0 | 0.0 | 0.00 | 0.08 | 0.00 | 83 | 1023.0 |
| 20260509050516 | 39 | 0 | 0.0 | 0.0 | 0.00 | 0.08 | 0.00 | 83 | 1023.0 |
| 20260509050046 | 39 | 0 | 0.0 | 0.0 | 0.00 | 0.08 | 0.00 | 83 | 1023.0 |
| 20260509045509 | 39 | 0 | 0.0 | 0.0 | 0.00 | 0.08 | 0.00 | 83 | 1023.1 |
| 20260509045011 | 39 | 0 | 0.0 | 0.0 | 0.00 | 0.08 | 0.00 | 83 | 1022.9 |
| 20260509044529 | 39 | 0 | 0.0 | 1.0 | 0.00 | 0.08 | 0.00 | 83 | 1022.9 |
| 20260509044013 | 39 | 0 | 0.0 | 1.0 | 0.00 | 0.08 | 0.00 | 83 | 1022.8 |
| 20260509043509 | 39 | 0 | 0.0 | 0.0 | 0.00 | 0.08 | 0.00 | 83 | 1022.9 |
| 20260509043036 | 39 | 0 | 0.0 | 0.0 | 0.00 | 0.08 | 0.00 | 83 | 1022.9 |
| 20260509042508 | 39 | 0 | 0.0 | 0.0 | 0.00 | 0.08 | 0.00 | 83 | 1023.0 |
| 20260509042014 | 39 | 0 | 0.0 | 0.0 | 0.00 | 0.08 | 0.00 | 83 | 1023.0 |
| 20260509041528 | 39 | 0 | 0.0 | 1.0 | 0.00 | 0.08 | 0.00 | 83 | 1022.9 |
| 20260509041012 | 39 | 0 | 0.0 | 1.0 | 0.00 | 0.08 | 0.00 | 83 | 1022.9 |
| 20260509040513 | 39 | 0 | 0.0 | 1.0 | 0.00 | 0.08 | 0.00 | 84 | 1022.9 |
| 20260509040030 | 39 | 0 | 0.0 | 1.0 | 0.00 | 0.08 | 0.00 | 84 | 1022.8 |
| 20260509035513 | 39 | 0 | 0.0 | 1.0 | 0.00 | 0.08 | 0.00 | 84 | 1022.8 |
| 20260509035013 | 39 | 0 | 0.0 | 0.0 | 0.00 | 0.08 | 0.00 | 84 | 1022.8 |
| 20260509034530 | 39 | 0 | 0.0 | 0.0 | 0.00 | 0.08 | 0.00 | 84 | 1022.8 |
| 20260509034008 | 39 | 0 | 0.0 | 0.0 | 0.00 | 0.08 | 0.00 | 84 | 1022.8 |
| 20260509033512 | 39 | 0 | 0.0 | 0.0 | 0.00 | 0.08 | 0.00 | 84 | 1022.8 |
| 20260509033036 | 39 | 0 | 0.0 | 0.0 | 0.00 | 0.08 | 0.00 | 84 | 1022.8 |
| 20260509032518 | 39 | 0 | 0.0 | 0.0 | 0.00 | 0.08 | 0.00 | 84 | 1022.8 |
| 20260509032012 | 39 | 0 | 0.0 | 0.0 | 0.00 | 0.08 | 0.00 | 84 | 1022.8 |
| 20260509031533 | 39 | 0 | 0.0 | 0.0 | 0.00 | 0.08 | 0.00 | 83 | 1022.8 |
| 20260509031011 | 40 | 0 | 0.0 | 0.0 | 0.00 | 0.08 | 0.00 | 83 | 1022.9 |
| 20260509030510 | 40 | 0 | 0.0 | 0.0 | 0.00 | 0.08 | 0.00 | 83 | 1022.9 |
| 20260509030029 | 40 | 0 | 0.0 | 0.0 | 0.00 | 0.08 | 0.00 | 84 | 1022.9 |
| 20260509025508 | 40 | 0 | 0.0 | 0.0 | 0.00 | 0.08 | 0.00 | 83 | 1022.7 |
| 20260509025010 | 40 | 0 | 0.0 | 0.0 | 0.00 | 0.08 | 0.00 | 83 | 1022.6 |
| 20260509024532 | 40 | 0 | 0.0 | 0.0 | 0.00 | 0.08 | 0.00 | 83 | 1022.6 |
| 20260509024014 | 40 | 0 | 0.0 | 0.0 | 0.00 | 0.08 | 0.00 | 83 | 1022.6 |
| 20260509023511 | 40 | 0 | 0.0 | 0.0 | 0.00 | 0.08 | 0.00 | 83 | 1022.6 |
| 20260509023028 | 40 | 0 | 0.0 | 0.0 | 0.00 | 0.08 | 0.00 | 83 | 1022.6 |
| 20260509022512 | 40 | 0 | 0.0 | 2.0 | 0.00 | 0.08 | 0.00 | 83 | 1022.5 |
| 20260509022009 | 40 | 0 | 0.0 | 2.0 | 0.00 | 0.08 | 0.00 | 83 | 1022.6 |
| 20260509021528 | 40 | 0 | 0.0 | 1.0 | 0.00 | 0.08 | 0.00 | 83 | 1022.6 |
| 20260509021008 | 41 | 0 | 0.0 | 1.0 | 0.00 | 0.08 | 0.00 | 83 | 1022.6 |
| 20260509020510 | 41 | 0 | 0.0 | 1.0 | 0.00 | 0.08 | 0.00 | 83 | 1022.7 |
| 20260509020026 | 41 | 0 | 0.0 | 0.0 | 0.00 | 0.08 | 0.00 | 83 | 1022.6 |
| 20260509015510 | 41 | 0 | 0.0 | 0.0 | 0.00 | 0.08 | 0.00 | 83 | 1022.6 |
| 20260509015015 | 41 | 0 | 0.0 | 0.0 | 0.00 | 0.08 | 0.00 | 83 | 1022.4 |
| 20260509014530 | 41 | 0 | 0.0 | 0.0 | 0.00 | 0.08 | 0.00 | 83 | 1022.5 |
| 20260509014009 | 41 | 0 | 0.0 | 0.0 | 0.00 | 0.08 | 0.00 | 83 | 1022.5 |
| 20260509013510 | 41 | 0 | 0.0 | 0.0 | 0.00 | 0.08 | 0.00 | 83 | 1022.4 |
| 20260509013030 | 41 | 0 | 0.0 | 1.0 | 0.00 | 0.08 | 0.00 | 83 | 1022.5 |
| 20260509012512 | 41 | 0 | 0.0 | 1.0 | 0.00 | 0.08 | 0.00 | 83 | 1022.4 |
| 20260509012010 | 41 | 0 | 0.0 | 0.0 | 0.00 | 0.08 | 0.00 | 83 | 1022.4 |
| 20260509011527 | 41 | 0 | 0.0 | 0.0 | 0.00 | 0.08 | 0.00 | 83 | 1022.4 |
| 20260509011010 | 41 | 0 | 0.0 | 0.0 | 0.00 | 0.08 | 0.00 | 83 | 1022.4 |
| 20260509010509 | 41 | 0 | 0.0 | 0.0 | 0.00 | 0.08 | 0.00 | 82 | 1022.4 |
| 20260509010033 | 41 | 0 | 0.0 | 0.0 | 0.00 | 0.08 | 0.00 | 82 | 1022.3 |
| 20260509005511 | 41 | 0 | 0.0 | 0.0 | 0.00 | 0.08 | 0.00 | 83 | 1022.3 |
| 20260509005010 | 41 | 0 | 0.0 | 0.0 | 0.00 | 0.08 | 0.00 | 83 | 1022.2 |
| 20260509004527 | 41 | 0 | 0.0 | 0.0 | 0.00 | 0.08 | 0.00 | 83 | 1022.1 |
| 20260509004011 | 42 | 0 | 0.0 | 0.0 | 0.00 | 0.08 | 0.00 | 83 | 1022.2 |
| 20260509003533 | 42 | 0 | 0.0 | 0.0 | 0.00 | 0.08 | 0.00 | 83 | 1022.1 |
| 20260509003028 | 42 | 0 | 0.0 | 0.0 | 0.00 | 0.08 | 0.00 | 83 | 1022.2 |
| 20260509002509 | 42 | 0 | 0.0 | 0.0 | 0.00 | 0.08 | 0.00 | 83 | 1022.1 |
| 20260509002015 | 42 | 0 | 0.0 | 0.0 | 0.00 | 0.08 | 0.00 | 83 | 1022.0 |
| 20260509001528 | 42 | 0 | 0.0 | 0.0 | 0.00 | 0.08 | 0.00 | 83 | 1022.0 |
| 20260509001011 | 42 | 0 | 0.0 | 0.0 | 0.00 | 0.08 | 0.00 | 83 | 1022.0 |
| 20260509000510 | 42 | 0 | 0.0 | 0.0 | 0.00 | 0.08 | 0.00 | 83 | 1022.0 |
| 20260509000039 | 42 | 0 | 0.0 | 0.0 | 0.00 | 0.08 | 0.00 | 83 | 1022.0 |
| 20260508235511 | 42 | 0 | 0.0 | 0.0 | 0.00 | 0.08 | 0.00 | 83 | 1021.9 |
| 20260508235009 | 42 | 0 | 0.0 | 0.0 | 0.00 | 0.08 | 0.00 | 83 | 1022.0 |
| 20260508234527 | 42 | 0 | 0.0 | 0.0 | 0.00 | 0.08 | 0.00 | 83 | 1022.0 |
| 20260508234010 | 42 | 0 | 0.0 | 0.0 | 0.00 | 0.08 | 0.00 | 84 | 1022.0 |
| 20260508233508 | 42 | 0 | 0.0 | 0.0 | 0.00 | 0.08 | 0.00 | 84 | 1021.9 |
| 20260508233030 | 43 | 0 | 0.0 | 0.0 | 0.00 | 0.08 | 0.00 | 83 | 1021.9 |
| 20260508232508 | 43 | 0 | 0.0 | 0.0 | 0.00 | 0.08 | 0.00 | 83 | 1021.8 |
| 20260508232010 | 43 | 0 | 0.0 | 1.0 | 0.00 | 0.08 | 0.00 | 83 | 1021.9 |
| 20260508231527 | 43 | 0 | 0.0 | 1.0 | 0.00 | 0.08 | 0.00 | 83 | 1021.8 |
| 20260508231014 | 43 | 0 | 0.0 | 1.0 | 0.00 | 0.08 | 0.00 | 83 | 1021.8 |
| 20260508230510 | 43 | 0 | 0.0 | 0.0 | 0.00 | 0.08 | 0.00 | 84 | 1021.7 |
| 20260508230029 | 43 | 0 | 0.0 | 0.0 | 0.00 | 0.08 | 0.00 | 84 | 1021.7 |
| 20260508225510 | 43 | 0 | 0.0 | 0.0 | 0.00 | 0.08 | 0.08 | 84 | 1021.7 |
| 20260508225011 | 43 | 0 | 0.0 | 0.0 | 0.00 | 0.08 | 0.08 | 84 | 1021.6 |
| 20260508224548 | 43 | 0 | 0.0 | 0.0 | 0.00 | 0.08 | 0.08 | 84 | 1021.6 |
| 20260508224007 | 43 | 0 | 0.0 | 0.0 | 0.00 | 0.08 | 0.08 | 84 | 1021.6 |
| 20260508223507 | 44 | 0 | 0.0 | 0.0 | 0.00 | 0.08 | 0.08 | 84 | 1021.6 |
| 20260508223028 | 44 | 0 | 0.0 | 0.0 | 0.00 | 0.08 | 0.08 | 85 | 1021.5 |
| 20260508222509 | 44 | 0 | 0.0 | 0.0 | 0.00 | 0.08 | 0.08 | 85 | 1021.5 |
| 20260508222009 | 44 | 0 | 0.0 | 0.0 | 0.00 | 0.08 | 0.08 | 84 | 1021.4 |
| 20260508221532 | 44 | 0 | 0.0 | 0.0 | 0.00 | 0.08 | 0.08 | 85 | 1021.3 |
| 20260508221010 | 44 | 0 | 0.0 | 0.0 | 0.00 | 0.08 | 0.08 | 86 | 1021.3 |
| 20260508220510 | 44 | 0 | 0.0 | 0.0 | 0.01 | 0.08 | 0.08 | 86 | 1021.1 |
| 20260508220034 | 45 | 0 | 0.0 | 0.0 | 0.01 | 0.08 | 0.08 | 86 | 1021.2 |
| 20260508215510 | 45 | 0 | 0.0 | 0.0 | 0.01 | 0.08 | 0.08 | 86 | 1021.1 |
| 20260508215013 | 45 | 0 | 0.0 | 0.0 | 0.01 | 0.08 | 0.08 | 86 | 1021.0 |
| 20260508214538 | 45 | 0 | 0.0 | 0.0 | 0.01 | 0.08 | 0.08 | 86 | 1021.0 |
| 20260508214009 | 45 | 0 | 0.0 | 0.0 | 0.02 | 0.08 | 0.08 | 86 | 1020.9 |
| 20260508213510 | 45 | 0 | 0.0 | 0.0 | 0.03 | 0.08 | 0.08 | 86 | 1020.8 |
| 20260508213032 | 45 | 0 | 0.0 | 0.0 | 0.03 | 0.08 | 0.08 | 86 | 1020.8 |
| 20260508212508 | 45 | 0 | 0.0 | 0.0 | 0.03 | 0.08 | 0.08 | 86 | 1020.8 |
| 20260508212011 | 45 | 0 | 0.0 | 0.0 | 0.03 | 0.08 | 0.08 | 86 | 1020.7 |
| 20260508211528 | 45 | 0 | 0.0 | 0.0 | 0.03 | 0.08 | 0.08 | 86 | 1020.7 |
| 20260508211011 | 45 | 0 | 0.0 | 0.0 | 0.03 | 0.08 | 0.08 | 86 | 1020.6 |
| 20260508210510 | 45 | 0 | 0.0 | 0.0 | 0.02 | 0.07 | 0.07 | 85 | 1020.5 |
| 20260508210031 | 45 | 0 | 0.0 | 0.0 | 0.02 | 0.07 | 0.07 | 85 | 1020.6 |
| 20260508205515 | 45 | 0 | 0.0 | 0.0 | 0.02 | 0.07 | 0.07 | 85 | 1020.6 |
| 20260508205014 | 45 | 0 | 0.0 | 0.0 | 0.02 | 0.07 | 0.07 | 85 | 1020.5 |
| 20260508204528 | 45 | 0 | 0.0 | 0.0 | 0.02 | 0.07 | 0.07 | 84 | 1020.5 |
| 20260508204009 | 46 | 0 | 0.0 | 0.0 | 0.01 | 0.06 | 0.06 | 84 | 1020.4 |
| 20260508203514 | 46 | 0 | 0.0 | 0.0 | 0.00 | 0.05 | 0.05 | 84 | 1020.4 |
| 20260508203027 | 46 | 0 | 0.0 | 0.0 | 0.00 | 0.05 | 0.05 | 84 | 1020.3 |
| 20260508202510 | 46 | 0 | 0.0 | 0.0 | 0.00 | 0.05 | 0.05 | 84 | 1020.2 |
| 20260508202009 | 46 | 0 | 0.0 | 0.0 | 0.00 | 0.05 | 0.05 | 84 | 1020.1 |
| 20260508201527 | 46 | 0 | 0.0 | 0.0 | 0.00 | 0.05 | 0.05 | 84 | 1020.1 |
| 20260508201008 | 46 | 0 | 0.0 | 0.0 | 0.00 | 0.05 | 0.05 | 84 | 1020.0 |
| 20260508200507 | 46 | 0 | 0.0 | 0.0 | 0.00 | 0.05 | 0.05 | 84 | 1019.8 |
| 20260508200041 | 46 | 0 | 0.0 | 0.0 | 0.01 | 0.05 | 0.05 | 84 | 1019.8 |
| 20260508195509 | 47 | 0 | 0.0 | 0.0 | 0.02 | 0.05 | 0.05 | 84 | 1019.7 |
| 20260508195010 | 47 | 0 | 0.0 | 0.0 | 0.03 | 0.05 | 0.05 | 84 | 1019.7 |
| 20260508194530 | 47 | 0 | 0.0 | 0.0 | 0.03 | 0.05 | 0.05 | 84 | 1019.5 |
| 20260508194014 | 47 | 0 | 0.0 | 0.0 | 0.03 | 0.05 | 0.05 | 84 | 1019.5 |
| 20260508193509 | 47 | 0 | 0.0 | 0.0 | 0.03 | 0.05 | 0.05 | 84 | 1019.4 |
| 20260508193029 | 47 | 0 | 0.0 | 0.0 | 0.04 | 0.05 | 0.05 | 83 | 1019.3 |
| 20260508192515 | 47 | 0 | 0.0 | 0.0 | 0.04 | 0.05 | 0.05 | 83 | 1019.2 |
| 20260508192014 | 47 | 0 | 0.0 | 0.0 | 0.04 | 0.05 | 0.05 | 83 | 1019.2 |
| 20260508191533 | 47 | 0 | 0.0 | 0.0 | 0.04 | 0.05 | 0.05 | 83 | 1019.1 |
| 20260508191010 | 47 | 0 | 0.0 | 0.0 | 0.04 | 0.05 | 0.05 | 82 | 1019.1 |
| 20260508190508 | 47 | 0 | 0.0 | 0.0 | 0.04 | 0.05 | 0.05 | 81 | 1019.1 |
| 20260508190027 | 47 | 0 | 0.0 | 0.0 | 0.03 | 0.04 | 0.04 | 80 | 1018.9 |
| 20260508185510 | 48 | 0 | 0.0 | 0.0 | 0.02 | 0.03 | 0.03 | 80 | 1018.8 |
| 20260508185010 | 48 | 0 | 0.0 | 0.0 | 0.01 | 0.02 | 0.02 | 80 | 1018.7 |
| 20260508184529 | 48 | 0 | 0.0 | 0.0 | 0.01 | 0.02 | 0.02 | 79 | 1018.8 |
| 20260508184010 | 48 | 0 | 0.0 | 0.0 | 0.01 | 0.02 | 0.02 | 79 | 1018.7 |
| 20260508183511 | 48 | 0 | 0.0 | 0.0 | 0.01 | 0.02 | 0.02 | 78 | 1018.6 |
| 20260508183028 | 48 | 0 | 0.0 | 0.0 | 0.00 | 0.01 | 0.01 | 79 | 1018.6 |
| 20260508182509 | 49 | 0 | 0.0 | 0.0 | 0.00 | 0.01 | 0.01 | 78 | 1018.5 |
| 20260508182011 | 49 | 0 | 0.0 | 1.0 | 0.00 | 0.01 | 0.01 | 78 | 1018.4 |
| 20260508181530 | 49 | 0 | 0.0 | 1.0 | 0.00 | 0.01 | 0.01 | 77 | 1018.2 |
| 20260508181015 | 50 | 0 | 0.0 | 0.0 | 0.00 | 0.01 | 0.01 | 77 | 1018.1 |
| 20260508180510 | 50 | 0 | 0.0 | 0.0 | 0.00 | 0.01 | 0.01 | 77 | 1018.0 |
| 20260508180031 | 50 | 0 | 0.0 | 0.0 | 0.00 | 0.01 | 0.01 | 76 | 1017.9 |
| 20260508175510 | 50 | 0 | 0.0 | 2.0 | 0.00 | 0.01 | 0.01 | 75 | 1017.9 |
| 20260508175011 | 50 | 0 | 0.0 | 4.0 | 0.00 | 0.01 | 0.01 | 74 | 1017.6 |
| 20260508174528 | 51 | 0 | 0.0 | 4.0 | 0.00 | 0.01 | 0.01 | 72 | 1017.7 |
| 20260508174016 | 51 | 0 | 0.0 | 3.0 | 0.00 | 0.01 | 0.01 | 72 | 1017.6 |
| 20260508173511 | 52 | 0 | 0.0 | 9.0 | 0.00 | 0.01 | 0.01 | 71 | 1017.5 |
| 20260508173031 | 52 | 0 | 0.0 | 9.0 | 0.00 | 0.01 | 0.01 | 69 | 1017.5 |
| 20260508172510 | 53 | 0 | 1.0 | 9.0 | 0.01 | 0.01 | 0.01 | 66 | 1017.3 |
| 20260508172012 | 53 | 0 | 0.0 | 0.0 | 0.01 | 0.01 | 0.01 | 61 | 1017.1 |
| 20260508171535 | 53 | 0 | 0.0 | 0.0 | 0.01 | 0.01 | 0.01 | 63 | 1017.1 |
| 20260508171017 | 53 | 0 | 0.0 | 0.0 | 0.01 | 0.01 | 0.01 | 66 | 1017.0 |
| 20260508170511 | 53 | 0 | 0.0 | 0.0 | 0.01 | 0.01 | 0.01 | 64 | 1016.8 |
| 20260508170030 | 52 | 0 | 0.0 | 0.0 | 0.01 | 0.01 | 0.01 | 63 | 1016.8 |
| 20260508165510 | 52 | 0 | 0.0 | 0.0 | 0.01 | 0.01 | 0.01 | 65 | 1016.8 |
| 20260508165008 | 52 | 0 | 0.0 | 0.0 | 0.01 | 0.01 | 0.01 | 63 | 1016.7 |
| 20260508164527 | 52 | 0 | 0.0 | 5.0 | 0.01 | 0.01 | 0.01 | 62 | 1016.7 |
| 20260508164011 | 52 | 0 | 0.0 | 5.0 | 0.01 | 0.01 | 0.01 | 61 | 1016.6 |
| 20260508163512 | 52 | 0 | 0.0 | 4.0 | 0.01 | 0.01 | 0.01 | 64 | 1016.6 |
| 20260508163029 | 53 | 0 | 0.0 | 4.0 | 0.01 | 0.01 | 0.01 | 62 | 1016.5 |
| 20260508162508 | 53 | 0 | 0.0 | 0.0 | 0.00 | 0.00 | 0.00 | 67 | 1016.6 |
| 20260508162008 | 53 | 0 | 0.0 | 0.0 | 0.00 | 0.00 | 0.00 | 66 | 1016.4 |
| 20260508161535 | 53 | 0 | 0.0 | 0.0 | 0.00 | 0.00 | 0.00 | 66 | 1016.3 |
| 20260508161009 | 54 | 0 | 0.0 | 0.0 | 0.00 | 0.00 | 0.00 | 65 | 1016.4 |
| 20260508160510 | 54 | 0 | 0.0 | 5.0 | 0.00 | 0.00 | 0.00 | 61 | 1016.2 |
| 20260508160034 | 54 | 0 | 0.0 | 5.0 | 0.00 | 0.00 | 0.00 | 59 | 1016.2 |
| 20260508155510 | 54 | 0 | 0.0 | 10.0 | 0.00 | 0.01 | 0.00 | 59 | 1016.3 |
| 20260508155008 | 54 | 0 | 0.0 | 10.0 | 0.00 | 0.01 | 0.00 | 60 | 1016.1 |
| 20260508154530 | 55 | 248 | 0.0 | 4.0 | 0.00 | 0.01 | 0.00 | 63 | 1016.0 |
| 20260508154008 | 55 | 0 | 0.0 | 4.0 | 0.00 | 0.01 | 0.00 | 58 | 1016.0 |
| 20260508153511 | 55 | 0 | 0.0 | 4.0 | 0.00 | 0.01 | 0.00 | 58 | 1015.9 |
| 20260508153028 | 56 | 0 | 0.0 | 2.0 | 0.00 | 0.01 | 0.00 | 59 | 1015.8 |
| 20260508152508 | 56 | 0 | 0.0 | 3.0 | 0.00 | 0.01 | 0.00 | 58 | 1015.9 |
| 20260508152009 | 56 | 0 | 0.0 | 6.0 | 0.00 | 0.01 | 0.00 | 56 | 1015.7 |
| 20260508151528 | 56 | 0 | 0.0 | 7.0 | 0.00 | 0.01 | 0.00 | 55 | 1015.7 |
| 20260508151017 | 57 | 300 | 0.0 | 7.0 | 0.00 | 0.01 | 0.00 | 57 | 1015.7 |
| 20260508150508 | 57 | 0 | 0.0 | 5.0 | 0.00 | 0.01 | 0.00 | 54 | 1015.7 |
| 20260508150038 | 57 | 0 | 0.0 | 0.0 | 0.00 | 0.01 | 0.00 | 53 | 1015.6 |
| 20260508145509 | 57 | 0 | 0.0 | 0.0 | 0.00 | 0.02 | 0.00 | 52 | 1015.5 |
| 20260508145015 | 57 | 0 | 0.0 | 0.0 | 0.00 | 0.02 | 0.00 | 51 | 1015.4 |
| 20260508144539 | 57 | 0 | 0.0 | 0.0 | 0.00 | 0.02 | 0.00 | 51 | 1015.4 |
| 20260508144013 | 57 | 0 | 0.0 | 15.0 | 0.00 | 0.02 | 0.00 | 53 | 1015.4 |
| 20260508143515 | 57 | 0 | 0.0 | 15.0 | 0.00 | 0.02 | 0.00 | 51 | 1015.4 |
| 20260508143036 | 58 | 0 | 0.0 | 9.0 | 0.00 | 0.02 | 0.00 | 53 | 1015.4 |
| 20260508142509 | 58 | 0 | 0.0 | 3.0 | 0.00 | 0.02 | 0.00 | 52 | 1015.3 |
| 20260508142009 | 58 | 0 | 0.0 | 8.0 | 0.00 | 0.02 | 0.00 | 51 | 1015.3 |
| 20260508141529 | 58 | 0 | 0.0 | 8.0 | 0.00 | 0.02 | 0.00 | 51 | 1015.3 |
| 20260508141012 | 59 | 0 | 0.0 | 4.0 | 0.00 | 0.02 | 0.00 | 49 | 1015.1 |
| 20260508140508 | 59 | 0 | 0.0 | 4.0 | 0.00 | 0.02 | 0.00 | 49 | 1014.9 |
| 20260508140036 | 59 | 0 | 0.0 | 11.0 | 0.00 | 0.02 | 0.00 | 45 | 1015.0 |